Airfield :
LOGIN :

Register | Disclaimer

   EN    FR    IT 

 










Legend :    VFR   Marginal VFR   IFR   Intensive IFR   Very Intensive IFR
Visi :
Ceiling :
>= 8 km
>= 3000ft
5 to 8 km
1000 to 3000 ft
1500m to 5 km
500 to 1000 ft
800 to 1500m
200 to 500 ft
< 800m
< 200 ft
Symbols :   Thunderstorms  Fog  Heavy snow  Heavy precipitations  Wind > 20 kt
SIGMETs :     Misc.  Thunderstorms  Icing  Turbulence  Mountain Waves  Volcanic Ashes






- Airport Elevation : 12 ft
- IATA code : CQF


LFAC - Calais

CURRENT METAR :
  • 160600Z AUTO 22006KT 190V250 9999 BKN013/// BKN019/// BKN048/// ///TCU 11/09 Q1001

EXPIRED METARs :
  • 160530Z AUTO 22007KT 9999 SCT012 BKN022 BKN040 11/09 Q1001
  • 160500Z AUTO 23010KT 9999 FEW013 SCT041 BKN054 11/09 Q1000
  • 160430Z AUTO 23010KT 9999 FEW014 10/09 Q1000
  • 160400Z AUTO 24010KT 9999 FEW013 SCT031 10/08 Q1000

TAF N/A
ATIS : +33 3 21 00 11 14



MET'MAP, your aeronautical weather chart ! - Copyright ORBIFLY December 2007 - Disclaimer

ORBIFLY MET'MAP TEAM :

Programming & Development : Alexandra Zaïnal
Concept & original design : Baudouin d'Aumeries
Assistance for programming : Marc-Olivier Méhu
Technical & hardware support : Manuel Goepfert

Contact : metmap@orbifly.com




SOURCES & CREDITS :

   NOAA